#timestamp,LO_Frequency,Hit,StdDev 
1510974015.6,286047003.3,N
1510974035.4,286047002.5,N
1510974055.2,286047003.6,N
1510974075.1,286047009.6,Y
1510974076.0,286047009.6,P
1510974095.8,286047009.1,P
1510974115.6,286047009.5,P
1510974135.5,286047010.3,Y
1510974155.3,286047004.1,P
1510974175.1,286047011.7,P
1510974195.9,286047016.9,P
1510974215.7,286047017.7,Y
1510974235.6,286047005.5,P
1510974255.4,286047009.2,P
1510974275.2,286047006.2,P
1510974295.1,286047008.8,Y
1510974296.0,286047008.8,P
1510974315.8,286046999.1,N
1510974335.6,286046997.8,N
1510974355.4,286046999.7,N
1510974375.3,286047002.0,N
1510974395.1,286046991.7,N
1510974415.8,286046991.3,N
1510974435.7,286046993.7,N
1510974455.5,286046997.2,N
1510974475.3,286046999.0,N
1510974495.2,286047005.1,N
1510974515.9,286047005.7,N
1510974535.7,286047007.4,N
1510974555.6,286047006.2,N
1510974575.4,286046998.3,N
1510974595.2,286046990.1,N
1510974615.0,286046982.6,N
1510974616.0,286046982.6,N
1510974635.8,286046976.5,Y
1510974655.6,286046976.9,P
1510974675.5,286046972.4,N
1510974695.3,286046969.8,N
1510974715.1,286046968.9,N
1510974735.9,286046966.9,Y
1510974755.7,286046991.0,P
1510974775.5,286046989.5,N
1510974795.3,286046994.8,N
1510974815.2,286046999.5,N
1510974835.0,286047003.2,N
1510974835.9,286047003.2,N
1510974855.7,286047013.7,N
1510974875.6,286047020.3,N
1510974895.4,286047020.5,N
1510974915.2,286047024.3,N
1510974935.1,286047027.9,N
1510974936.0,286047027.9,N
1510974955.8,286047024.6,N
1510974975.6,286047028.2,N
1510974995.5,286047027.9,N
1510975015.3,286047025.6,N
1510975035.1,286047029.7,N
1510975055.9,286047033.8,N
1510975075.7,286047037.7,N
1510975095.5,286047033.3,N
1510975115.3,286047038.2,N
1510975135.2,286047038.1,N
1510975155.0,286047038.7,N
1510975155.9,286047038.7,N
1510975175.7,286047036.8,N
1510975195.6,286047038.6,N
1510975215.4,286047040.1,N
1510975235.2,286047042.6,N
1510975255.1,286047042.0,N
1510975256.0,286047042.0,N
1510975275.8,286047043.2,N
1510975295.6,286047045.7,Y
1510975315.5,286047025.2,P
1510975335.3,286047023.5,P
1510975355.1,286047024.5,P
1510975375.9,286047024.5,Y
1510975395.7,286046996.3,P
1510975415.5,286046997.9,N
1510975435.4,286046997.2,N
1510975455.2,286046994.3,N
1510975475.0,286046993.2,N
1510975475.9,286046993.2,N
1510975495.8,286046994.0,N
1510975515.6,286046997.0,N
1510975535.4,286046998.7,N
1510975555.2,286047000.7,N
1510975575.1,286046998.6,N
1510975576.0,286046998.6,N
1510975595.8,286046993.6,N
1510975615.6,286046986.9,N
1510975635.5,286046989.5,N
1510975655.3,286046989.6,N
1510975675.1,286046985.7,N
1510975695.9,286046981.0,N
1510975715.7,286046982.2,N
1510975735.5,286046980.9,N
1510975755.4,286046988.0,N
1510975775.2,286046983.9,N
1510975795.0,286046980.2,N
1510975795.9,286046980.2,N
1510975815.8,286046974.4,N
1510975835.6,286046977.2,N
1510975855.4,286046984.5,N
1510975875.2,286046983.5,N
1510975895.1,286046981.0,N
1510975896.0,286046981.0,N
1510975915.8,286046977.4,Y
1510975935.7,286046988.7,P
1510975955.5,286046982.4,P
1510975975.3,286046978.0,P
1510975995.2,286046975.2,Y
1510976015.9,286046983.7,P
1510976035.7,286046979.2,P
1510976055.5,286046979.3,P
1510976075.4,286046978.1,Y
1510976095.2,286046994.6,P
1510976115.0,286046988.5,N
1510976116.0,286046988.5,N
1510976135.8,286046987.0,N
1510976155.6,286046984.7,Y
1510976175.5,286046992.5,P
1510976195.3,286046990.3,P
1510976215.1,286046987.0,P
1510976235.9,286046986.3,Y
1510976255.7,286046995.8,P
1510976275.5,286046994.8,N
1510976295.3,286046991.6,P
1510976315.2,286046988.4,Y
1510976335.0,286046993.2,P
1510976335.9,286046993.2,P
1510976355.8,286046992.7,P
1510976375.6,286046996.0,Y
1510976395.4,286047004.8,P
1510976415.3,286047003.7,N
1510976435.1,286047003.6,N
1510976436.0,286047003.6,N
1510976455.8,286047007.5,N
1510976475.6,286047010.0,N
1510976495.5,286047015.8,Y
1510976515.3,286047021.1,P
1510976535.1,286047021.7,N
1510976555.9,286047020.1,N
1510976575.7,286047013.3,N
1510976595.5,286047009.3,N
1510976615.4,286047015.5,N
1510976635.2,286047016.3,N
1510976655.0,286047010.1,N
1510976655.9,286047010.1,N
1510976675.8,286047008.2,N
1510976695.6,286047011.1,N
1510976715.4,286047010.0,N
1510976735.3,286047010.5,N
1510976755.1,286047009.9,N
1510976756.0,286047009.9,N
1510976775.8,286047010.9,N
1510976795.7,286047013.5,N
1510976815.5,286047009.0,N
1510976835.3,286047005.7,N
1510976855.1,286047008.4,N
1510976875.9,286047006.5,N
1510976895.7,286047004.5,N
1510976915.5,286047004.8,N
1510976935.4,286047000.4,N
1510976955.2,286046998.8,N
1510976975.0,286047000.7,N
1510976975.9,286047000.7,N
1510976995.8,286046999.6,N
1510977015.6,286046997.4,N
1510977035.4,286046993.6,N
1510977055.3,286046991.7,N
1510977075.1,286046992.9,N
1510977076.0,286046992.9,N
1510977095.8,286046991.1,N
1510977115.7,286046990.8,N
1510977135.5,286046988.3,N
1510977155.3,286046991.0,N
1510977175.1,286046991.2,N
1510977195.9,286046988.8,N
1510977215.7,286046991.6,N
1510977235.5,286046991.3,N
1510977255.4,286046992.4,N
1510977275.2,286046993.7,N
1510977295.0,286046994.4,N
1510977295.9,286046994.4,N
1510977315.8,286046990.4,N
1510977335.6,286046985.9,N
1510977355.4,286046985.7,N
1510977375.3,286046986.1,N
1510977395.1,286046985.5,N
1510977396.0,286046985.5,N
1510977415.8,286046988.3,N
1510977435.7,286046985.3,N
1510977455.5,286046982.8,Y
1510977475.3,286046987.1,P
1510977495.2,286046985.1,P
1510977515.9,286046980.2,P
1510977535.7,286046978.2,Y
1510977555.6,286046990.5,P
1510977575.4,286046991.4,P
1510977595.2,286046987.9,P
